Wind_Speed
54 52 51 54 57 58 60 61 62 62 63 64 66 66 67 67 67 67 67 66 66 67 66 62 63 61 57 54 49 47 52 54 53 52 51 53 54 54 52 53 54 52 52 53 50 42 36 36 40 41 40 38 37 36 38 40 38 35 34 31 29 29 29 29 27 24 22 22 20 18 16 15 14 14 13 13 13 13 13 13 13 14 14 14 15 15
58 55 54 58 59 59 61 62 63 62 64 65 67 68 68 69 70 70 69 68 68 71 70 66 66 65 60 58 53 50 53 55 54 53 53 55 57 56 53 53 54 50 52 54 51 44 38 38 40 42 41 38 36 37 38 40 39 37 36 34 31 30 30 29 29 28 25 25 24 22 20 18 16 15 15 15 15 15 14 14 14 15 15 15 16 16
59 56 58 60 60 61 62 62 62 63 65 67 69 70 70 72 73 73 72 70 71 73 74 71 71 71 66 61 57 54 57 61 59 57 58 59 60 58 54 54 53 48 52 54 51 47 41 38 39 41 40 37 36 38 39 40 41 41 39 36 33 31 30 30 31 30 28 27 27 26 24 22 20 19 18 18 17 15 14 14 15 15 16 16 16 16
60 58 60 60 60 61 61 62 63 64 65 68 70 72 73 75 76 76 74 72 73 75 77 77 76 76 71 66 62 58 61 66 64 63 63 63 62 59 55 54 50 49 53 52 50 50 43 39 40 40 41 40 39 40 41 41 43 44 40 36 35 33 31 31 31 31 31 30 29 29 28 26 24 23 21 20 18 15 14 15 15 15 16 18 18 18
58 58 59 59 60 61 62 62 64 66 67 68 70 73 75 75 76 77 75 73 74 76 77 78 80 80 74 70 66 61 62 65 66 66 65 64 63 59 55 53 47 48 53 50 48 50 45 39 41 42 43 44 44 43 43 43 43 44 41 37 36 35 34 33 32 33 34 33 31 30 31 30 27 25 23 21 18 16 16 16 16 17 18 19 19 20
57 58 60 60 60 62 63 64 65 68 70 69 71 73 75 76 76 76 74 72 75 77 77 78 82 80 73 70 68 65 66 66 67 68 66 63 60 54 52 50 42 45 53 51 48 50 49 41 40 43 43 45 46 46 45 45 44 44 43 41 39 38 36 34 33 33 34 34 32 31 32 31 30 28 26 23 21 21 21 21 20 20 19 19 19 20
59 60 62 61 62 63 64 66 67 71 73 74 75 75 76 76 77 77 75 74 77 78 79 80 80 76 72 73 71 69 72 71 68 67 63 58 53 49 49 48 43 45 53 52 48 50 50 42 38 40 41 42 44 46 46 47 45 43 44 44 42 39 37 36 34 34 34 35 33 32 32 32 33 32 30 28 27 27 26 25 24 22 20 20 20 20
62 63 63 63 64 65 67 70 71 74 77 78 78 79 79 78 79 79 77 79 79 77 81 83 78 75 76 76 76 75 76 75 70 66 61 53 47 46 45 45 46 49 53 51 46 47 47 42 37 37 37 39 41 44 47 48 45 44 46 46 44 41 38 37 36 35 35 35 34 33 33 34 34 34 33 32 32 30 28 26 24 23 22 21 21 21
63 65 65 66 67 68 71 73 74 77 79 80 81 81 80 80 82 81 79 82 76 73 82 85 78 76 77 78 79 79 78 75 70 68 64 53 45 45 44 45 48 51 54 50 43 43 43 40 37 37 36 36 39 43 47 49 47 47 48 47 45 43 41 39 37 36 35 35 35 35 34 34 34 35 36 36 35 32 30 28 27 26 25 24 23 22
64 67 68 70 71 73 75 76 77 80 81 82 82 81 81 82 84 81 80 81 73 74 86 87 78 75 78 82 82 80 77 71 68 69 68 58 48 45 45 48 51 54 56 49 39 38 39 37 36 38 38 36 38 43 47 49 49 50 49 48 47 46 44 40 38 37 36 36 36 36 35 35 36 37 37 37 37 35 32 30 29 28 27 26 26 25
65 67 70 73 75 77 79 79 80 81 82 82 82 82 83 84 85 84 85 82 76 82 89 87 82 77 80 87 86 80 74 69 69 72 71 66 56 49 49 53 55 55 53 45 37 35 36 36 35 36 38 38 38 43 47 49 51 51 50 51 50 48 46 43 40 38 37 37 37 36 35 35 37 38 38 38 38 36 34 32 31 30 29 28 28 27
66 68 72 75 78 80 81 82 82 81 82 82 82 84 85 88 89 87 87 83 80 87 91 89 86 78 83 93 88 78 76 73 73 74 73 68 57 52 53 54 53 50 45 41 37 34 34 35 34 34 37 38 38 41 46 49 50 51 51 53 54 51 48 45 41 39 37 37 38 37 36 36 37 38 39 39 38 37 36 34 33 32 31 30 30 30
67 68 73 77 80 82 82 83 83 82 82 82 84 85 86 90 89 82 82 82 83 90 93 89 85 81 89 95 85 78 79 73 64 61 62 59 53 53 52 47 44 42 40 41 40 36 35 36 34 33 36 39 38 39 45 48 49 50 52 54 55 52 48 46 42 40 39 38 38 38 37 36 36 38 38 39 39 39 38 37 35 34 32 31 31 30
72 70 74 79 83 84 83 83 84 84 83 83 85 86 87 90 84 77 80 84 87 91 90 87 87 87 92 91 81 77 75 64 51 45 47 47 50 55 52 44 43 42 41 43 43 39 37 36 34 32 35 39 38 37 42 48 49 50 52 51 51 51 49 47 44 41 40 39 39 39 38 38 37 36 37 38 40 40 40 39 37 35 34 33 32 30
79 78 78 81 85 84 82 82 83 85 86 86 86 87 89 88 81 79 83 86 88 89 88 91 90 87 87 82 73 67 62 54 45 41 43 45 50 55 51 45 44 44 43 44 45 40 37 37 36 34 35 38 38 38 42 47 50 52 52 48 48 52 49 46 45 43 41 40 40 40 39 38 37 36 36 38 40 40 41 40 38 36 35 34 34 32
84 83 81 82 84 82 82 83 84 87 88 88 89 89 90 89 85 87 90 89 88 85 85 88 85 81 78 71 61 56 54 47 42 45 48 48 49 50 48 44 43 44 44 45 46 42 38 39 39 37 36 36 37 40 42 47 51 52 53 50 48 50 49 47 46 44 42 42 42 41 40 39 38 37 37 38 39 39 40 40 39 38 37 36 36 35
85 85 82 82 84 83 85 86 86 88 88 88 90 91 92 91 89 92 92 89 87 82 79 79 79 76 71 65 58 51 48 42 40 47 48 46 48 49 48 45 43 44 44 44 45 43 42 42 41 38 36 36 37 40 42 46 50 52 53 53 50 49 49 49 48 47 45 43 43 42 41 40 39 38 38 38 39 39 39 40 40 40 39 38 38 37
85 88 86 85 86 87 87 88 88 87 86 88 91 94 94 93 95 94 88 85 84 78 75 75 75 72 65 62 59 51 46 45 46 48 48 48 50 52 52 51 48 44 44 44 43 45 46 43 41 37 36 37 38 38 39 42 47 52 54 54 51 50 50 50 49 48 46 44 43 43 42 41 40 39 39 39 40 40 40 41 41 41 40 38 38 38
83 88 90 87 87 90 90 90 91 88 87 90 92 95 95 94 96 92 82 82 81 77 78 76 71 66 60 59 62 58 48 45 47 47 45 46 49 53 55 54 51 46 44 43 43 46 47 43 40 38 37 38 38 35 34 37 43 51 55 53 50 50 51 52 51 50 48 46 45 45 44 42 41 41 41 40 41 41 41 41 42 42 41 40 40 39
83 88 92 90 88 91 92 92 93 92 92 93 94 96 97 96 97 91 84 82 80 78 79 76 72 69 66 69 74 67 53 46 49 50 47 44 43 47 51 51 49 46 45 45 45 48 50 47 42 39 38 39 38 34 31 31 34 45 54 53 49 49 52 55 54 53 51 48 46 45 44 43 42 42 42 41 41 41 41 41 43 43 42 42 41 40
85 88 93 94 92 94 93 92 94 95 94 94 97 100 99 98 98 93 84 76 71 74 77 78 82 82 79 82 82 73 65 62 64 63 61 56 50 50 54 54 52 53 54 51 47 49 55 53 45 41 41 39 38 34 29 25 24 34 49 52 48 48 53 58 56 53 51 49 47 46 45 44 43 43 43 42 42 42 42 43 44 44 43 42 42 41
88 91 95 97 96 96 94 93 93 94 91 92 97 101 98 96 93 86 81 74 70 75 80 82 89 92 87 87 83 76 74 72 71 71 72 70 67 67 67 65 60 59 59 55 48 49 56 56 48 45 44 41 39 34 30 27 22 27 43 50 48 49 54 58 56 53 51 50 48 47 46 45 45 44 44 44 43 43 44 45 45 45 44 42 42 41
89 92 94 95 96 97 96 94 93 91 88 90 97 99 96 91 85 78 79 80 79 82 83 84 90 94 89 84 80 77 75 73 73 73 73 73 74 76 76 75 71 64 58 54 49 49 55 55 48 48 49 44 41 34 32 31 24 25 40 48 47 48 51 55 56 54 52 52 50 48 47 46 46 45 45 44 44 44 45 46 46 45 44 43 43 42
89 90 92 94 97 99 97 95 95 92 90 93 99 99 95 89 81 75 75 78 81 84 85 87 92 93 87 80 77 75 72 69 66 63 60 60 61 64 70 78 80 72 61 56 51 49 53 54 50 51 51 47 44 37 34 34 27 26 39 45 44 45 48 51 54 54 53 53 52 50 49 48 47 46 46 45 44 45 45 46 46 45 44 43 43 41
88 90 93 95 97 101 102 99 97 94 92 95 99 96 91 85 78 74 73 74 79 82 81 84 91 91 82 76 73 68 62 58 55 51 48 48 49 49 55 66 77 77 67 58 52 49 50 54 53 54 53 50 48 42 37 36 30 28 37 44 42 42 45 49 52 53 55 55 53 51 50 49 48 47 46 45 44 44 45 46 46 45 44 43 42 40
86 89 93 93 92 98 103 98 92 89 88 92 91 86 81 75 70 68 70 73 78 79 75 76 83 82 74 68 64 57 52 52 53 51 45 45 46 45 44 49 62 73 73 64 57 50 49 54 54 55 56 53 50 46 43 42 36 31 38 45 44 42 43 47 50 53 57 56 53 50 49 48 48 47 46 45 45 45 46 46 45 44 43 42 40 39
86 90 93 89 87 93 97 93 86 83 85 88 86 81 77 72 67 66 70 72 73 73 71 68 71 72 67 61 57 52 49 49 49 48 44 43 43 41 39 39 44 56 68 72 68 56 48 52 54 54 56 55 53 50 49 47 40 34 39 46 48 46 44 46 49 51 55 55 51 47 46 45 46 46 46 46 46 46 46 45 43 43 42 41 39 38
87 91 92 86 85 91 93 90 85 83 86 88 86 84 79 73 68 67 69 69 66 67 69 65 63 65 64 58 54 51 48 44 42 42 42 41 38 35 34 34 33 37 49 64 72 64 52 52 57 57 53 53 55 55 51 50 46 38 39 45 50 51 49 48 48 49 51 52 49 45 42 41 42 43 45 47 47 47 46 43 41 41 42 41 39 38
90 93 91 86 88 92 93 90 86 85 87 87 85 84 79 72 68 67 67 65 60 62 67 66 64 66 64 58 54 52 49 45 44 44 41 38 35 31 29 31 31 29 33 46 62 69 62 56 59 62 55 50 53 56 53 51 48 41 37 39 46 52 54 51 49 49 51 51 49 46 43 41 41 41 44 46 46 45 44 41 40 40 41 41 40 39
90 91 89 87 88 92 93 89 84 83 84 84 84 81 74 67 63 63 64 61 58 60 63 66 69 69 65 61 57 54 51 48 48 48 44 38 36 34 32 33 33 30 29 33 45 59 63 59 59 63 62 55 53 56 56 52 47 42 39 36 36 42 48 50 51 51 53 53 50 48 46 44 43 42 43 44 43 42 41 40 39 39 40 41 41 40
87 86 85 83 84 89 90 85 80 79 80 82 81 75 66 62 62 63 62 59 60 62 64 68 71 69 65 61 57 53 52 52 51 49 44 41 40 38 37 38 36 31 28 28 33 44 56 60 61 63 65 61 56 53 53 52 47 46 48 45 39 36 38 44 50 53 54 55 53 51 49 46 45 44 44 43 42 41 41 40 39 39 40 41 42 42
82 81 79 76 79 85 85 80 78 76 77 78 75 67 61 62 63 60 56 57 58 57 59 63 64 60 56 54 53 51 52 54 53 49 45 43 42 43 45 44 37 29 26 26 28 36 48 57 61 63 65 65 61 54 51 52 49 48 52 53 50 44 37 36 43 50 54 57 56 54 52 49 48 47 46 45 44 42 42 41 41 41 42 43 43 43
75 74 73 72 76 82 79 75 74 74 78 78 70 62 60 56 52 47 46 50 49 44 49 54 52 48 48 49 52 53 53 55 55 52 48 45 44 47 50 47 38 30 25 24 25 30 39 49 57 63 64 65 65 57 50 50 51 52 54 55 55 54 45 35 36 42 50 57 58 56 54 52 50 49 48 47 46 45 45 44 44 44 44 44 44 44
69 67 68 68 72 78 75 70 71 73 76 75 67 58 50 41 37 38 42 45 41 36 39 44 43 42 43 44 48 50 50 52 54 54 52 48 47 50 50 46 40 35 29 24 22 25 31 37 45 55 61 64 64 58 49 48 51 55 57 56 55 55 49 39 35 38 45 54 60 59 57 55 54 51 50 50 49 48 48 48 48 47 47 47 47 46
65 65 66 67 71 75 70 66 70 73 71 69 63 51 35 31 32 37 41 40 36 31 34 39 40 40 39 40 43 45 47 49 51 53 54 53 53 54 52 46 42 40 37 30 23 24 27 31 36 44 52 58 60 56 49 49 52 57 59 56 53 53 49 44 41 41 43 51 59 61 59 57 56 54 53 53 53 53 53 52 52 51 50 49 48 47
65 65 65 66 68 69 66 65 69 72 69 64 55 39 28 32 36 41 45 39 28 26 36 43 42 39 40 43 44 44 47 51 49 47 50 54 56 56 54 50 46 45 44 37 28 25 25 28 31 36 42 48 55 55 49 49 54 59 61 58 54 52 51 47 46 45 44 49 56 61 61 59 58 57 56 57 58 57 57 56 56 55 54 53 52 51
64 64 64 65 64 63 65 66 67 70 70 61 49 35 31 36 38 42 49 43 26 27 44 49 44 45 48 49 48 46 48 53 49 41 44 52 55 57 57 53 50 49 46 42 36 30 26 25 28 33 36 42 51 54 48 48 55 60 62 61 56 54 53 50 49 49 48 50 53 58 62 60 58 59 60 60 60 60 59 59 59 58 57 56 55 54
61 60 60 63 63 60 63 68 69 72 71 61 51 43 35 36 38 41 50 48 33 35 48 51 49 53 54 53 52 49 47 53 49 37 37 47 52 55 58 56 52 51 48 46 43 39 34 28 27 32 35 39 47 51 47 47 54 57 57 58 56 56 56 54 52 50 51 53 54 56 61 62 58 59 60 60 60 60 60 60 60 59 58 57 56 55
56 56 55 58 60 57 61 68 71 72 69 60 54 48 38 35 39 42 50 50 40 39 46 50 53 55 54 55 57 54 50 54 51 37 35 45 49 50 55 56 54 52 52 51 48 45 40 32 29 33 35 38 45 48 45 46 52 52 50 51 52 56 57 55 54 53 52 52 52 53 61 65 61 60 62 62 61 60 60 61 61 60 60 59 58 57
54 54 52 53 54 56 62 68 69 70 66 58 52 47 40 36 38 44 52 51 44 43 46 49 52 53 54 57 58 55 52 54 54 43 38 44 47 46 50 54 54 54 56 55 52 49 42 33 32 35 36 39 45 45 42 45 51 50 49 49 51 55 57 53 52 54 54 53 53 54 58 62 61 61 63 64 64 64 63 63 63 63 63 62 60 59
56 54 53 53 54 57 63 67 69 70 63 55 50 46 42 41 42 46 52 53 51 50 48 47 51 52 54 56 57 56 54 53 54 49 41 42 45 45 48 52 52 55 58 56 54 52 43 35 35 38 39 40 44 45 42 45 47 48 48 48 49 54 57 54 51 54 57 58 57 57 59 60 59 57 57 58 61 64 65 65 66 67 66 64 63 62
57 56 55 55 56 60 63 66 72 71 61 53 50 45 43 48 50 49 53 56 56 54 51 51 53 53 54 55 56 58 57 55 54 50 42 41 43 43 47 52 53 54 57 56 54 51 44 38 38 41 43 43 45 45 44 45 46 45 45 45 46 51 57 57 53 54 59 61 59 58 60 61 57 53 50 50 51 54 57 59 62 65 67 66 64 63
55 57 59 57 58 62 65 66 70 72 62 51 50 46 40 45 53 54 56 57 53 52 54 56 54 52 54 57 58 59 60 57 55 50 43 39 39 39 41 47 52 55 56 56 54 51 46 41 40 42 44 44 45 45 44 44 45 45 46 45 44 48 55 59 57 54 58 62 60 58 59 59 55 52 50 49 48 47 47 47 49 53 59 64 66 65
53 56 60 59 57 61 67 67 67 69 61 49 51 52 45 44 51 55 57 57 53 52 56 57 54 52 54 58 59 59 58 54 51 48 42 37 37 37 35 37 45 53 55 55 54 51 48 43 42 43 42 40 42 44 44 44 44 45 46 47 46 46 51 57 60 55 54 58 61 60 60 59 56 53 50 49 49 49 47 45 44 43 46 55 64 67
52 53 56 58 57 59 66 68 68 68 60 49 51 55 51 48 52 54 56 58 58 57 58 59 58 55 55 57 59 58 56 53 49 46 41 34 34 36 34 32 39 49 54 56 54 51 48 45 45 46 42 37 38 42 43 45 46 45 45 47 47 45 46 52 59 59 54 55 60 62 62 60 58 55 49 45 46 46 45 44 46 43 41 45 56 63
52 52 55 58 61 62 65 66 68 67 58 51 52 54 52 53 55 55 57 59 60 59 58 57 58 57 56 57 59 59 58 54 49 46 43 37 33 35 35 33 38 48 54 56 54 50 48 48 47 48 46 40 36 39 43 46 48 47 45 45 45 44 42 45 52 55 54 53 54 56 57 57 57 56 53 48 45 44 44 45 47 46 44 44 48 55
51 53 56 60 62 66 68 66 67 63 54 50 53 51 49 54 56 55 57 59 58 57 55 54 55 56 56 56 57 58 58 54 50 48 46 42 37 36 37 36 41 51 56 56 53 49 47 48 49 50 49 42 35 37 44 47 47 48 48 45 43 42 41 41 43 46 47 47 48 49 51 53 55 57 57 54 51 49 49 51 50 48 48 49 49 51
53 54 57 60 62 66 68 67 68 60 46 45 53 53 51 56 56 52 52 54 54 53 53 53 55 56 56 55 53 55 56 53 51 51 50 46 41 39 39 39 43 53 58 55 53 49 46 48 49 48 46 39 34 39 46 47 46 49 50 46 42 40 41 43 43 44 45 46 47 47 48 50 54 58 58 56 53 52 52 52 52 49 49 50 52 52
55 56 58 61 64 67 66 66 68 57 37 32 44 49 53 60 58 51 49 49 49 52 54 54 53 54 55 55 53 54 56 53 50 52 50 44 39 37 39 40 42 53 59 56 53 50 47 46 46 43 40 35 33 39 45 44 44 49 50 46 42 39 41 44 46 47 48 49 49 49 48 49 53 56 56 54 51 49 49 50 50 48 47 49 52 53
55 57 59 60 64 67 65 65 68 60 41 32 37 45 53 59 56 50 50 49 49 53 56 55 52 49 50 52 53 54 55 53 51 51 46 38 33 34 37 38 40 52 60 58 53 50 48 45 41 36 34 32 32 37 42 42 44 49 48 43 40 39 40 43 46 48 49 50 51 51 50 51 55 57 56 53 50 48 48 48 48 46 45 48 49 50
55 57 58 59 62 65 64 63 64 60 49 40 39 43 50 55 53 49 50 52 52 55 57 58 55 51 48 49 50 51 52 52 50 47 40 31 27 30 35 36 36 50 61 58 52 49 47 43 38 31 29 29 30 34 39 42 45 49 48 42 38 37 38 40 43 45 47 51 53 53 52 52 54 55 54 53 51 49 48 46 44 43 44 46 46 47
Wind_Direction
302 302 301 298 297 299 301 303 303 303 303 303 303 303 303 305 305 304 307 312 314 310 308 310 309 307 309 313 317 319 316 315 318 318 318 319 320 315 314 315 314 315 320 322 320 307 288 281 279 276 275 271 269 267 261 256 251 249 250 247 244 244 246 246 242 233 225 223 223 218 211 209 207 205 205 205 195 188 186 184 186 189 191 194 195 197
304 304 301 299 299 300 301 302 304 303 303 303 305 307 306 307 307 305 307 312 313 310 309 310 309 307 308 311 314 315 313 313 314 316 316 317 319 315 312 313 311 314 321 321 319 311 291 279 278 275 273 269 265 263 259 254 249 245 245 244 242 241 243 246 245 239 230 224 224 223 218 215 213 209 207 209 206 200 195 190 188 190 191 193 195 196
305 304 301 300 301 302 303 304 305 305 304 305 307 310 309 308 309 307 309 312 311 310 310 311 310 308 308 310 311 312 311 309 309 311 313 315 316 314 310 309 309 313 319 319 317 312 296 279 276 273 271 269 266 263 258 252 246 241 240 241 241 242 242 243 245 242 236 229 225 225 224 220 218 216 212 212 215 216 211 205 200 197 196 195 197 198
305 304 301 301 303 304 305 306 308 307 305 305 309 313 311 311 312 311 312 312 310 310 311 313 310 308 309 309 308 310 309 308 308 310 312 313 314 313 310 306 307 314 318 317 315 313 300 280 271 270 269 271 270 266 261 255 248 241 238 239 241 242 242 241 242 242 240 234 228 226 227 225 223 224 223 220 221 225 224 221 216 209 205 202 201 202
306 304 302 303 305 306 306 307 308 307 305 305 309 313 313 312 313 314 314 314 312 311 311 313 310 308 311 310 308 310 308 308 312 313 313 312 312 311 309 305 304 312 317 315 315 313 304 286 270 266 267 270 272 269 263 258 250 242 237 235 236 238 239 240 240 241 241 238 232 229 229 229 229 230 231 227 223 227 229 228 227 222 217 212 209 207
307 305 304 305 305 305 306 307 308 308 307 306 309 312 312 313 314 315 316 315 314 313 311 310 309 309 313 312 310 312 310 310 315 316 313 311 309 306 304 301 299 309 315 315 314 311 307 295 274 267 267 267 272 272 264 258 251 242 235 233 232 232 235 238 240 241 241 240 235 231 231 231 231 230 229 226 222 224 225 225 228 228 226 225 220 214
307 304 305 305 305 305 306 308 309 311 311 310 311 312 313 315 316 316 317 315 315 315 312 310 309 311 314 313 313 314 313 315 319 318 313 309 305 302 302 297 294 305 312 312 312 309 306 298 280 271 270 267 270 271 263 256 250 241 234 233 232 230 232 236 239 241 241 241 237 233 231 230 230 230 227 224 222 224 225 226 231 233 232 232 228 223
306 305 305 306 307 308 309 310 312 312 313 312 313 314 316 318 317 317 317 316 315 314 311 311 312 311 310 312 315 315 315 319 321 318 314 309 300 296 298 295 293 301 308 308 308 307 303 298 284 274 273 270 268 267 262 256 249 240 232 231 232 229 229 231 236 240 241 241 239 235 231 229 229 230 228 225 223 225 226 228 231 234 233 232 230 228
305 306 307 308 309 309 310 311 313 313 314 314 316 317 319 319 318 318 317 316 315 312 311 314 315 309 306 310 315 316 317 319 320 317 315 311 298 290 294 296 296 299 303 304 304 303 300 296 286 277 273 270 264 262 261 256 249 240 231 228 229 229 227 227 231 237 239 240 239 236 233 229 229 230 230 227 225 225 226 226 228 231 233 234 233 232
305 308 310 310 310 310 310 311 313 315 315 317 318 319 320 318 318 317 316 316 312 308 311 316 316 308 304 310 315 317 318 319 319 315 314 312 300 287 287 295 298 298 299 298 296 297 296 293 287 279 273 269 263 258 257 255 250 243 233 226 226 227 227 226 227 233 237 239 239 237 234 231 229 230 231 230 228 226 225 224 226 230 233 235 236 235
305 308 310 310 311 311 312 313 315 315 316 319 320 320 319 317 316 316 315 315 309 308 314 317 316 310 305 310 316 319 319 319 317 313 312 311 301 285 282 290 295 297 295 291 288 290 290 289 287 281 275 270 263 257 254 253 251 247 238 228 224 224 225 224 224 228 233 237 239 237 234 231 230 230 231 232 231 229 227 225 225 228 230 233 236 236
305 308 309 310 311 312 313 315 315 315 317 319 320 320 319 317 317 317 316 314 310 312 318 318 316 311 306 312 319 320 318 317 314 311 310 307 298 285 283 286 290 291 287 283 283 283 283 283 282 281 278 271 263 257 253 251 251 250 243 233 225 221 221 222 222 225 230 234 237 236 233 231 229 230 231 232 232 230 228 225 224 226 228 231 234 237
303 305 308 310 311 312 314 315 314 314 316 317 319 320 319 320 320 318 317 315 313 315 319 319 316 309 308 314 319 317 316 315 312 308 306 301 291 285 283 279 277 276 273 275 276 273 273 274 273 273 274 270 261 253 250 248 248 248 244 237 229 222 220 220 220 223 227 231 234 235 233 230 229 229 230 231 231 230 228 225 223 225 227 229 233 236
302 301 304 309 310 312 315 316 316 316 317 318 320 321 320 322 321 317 316 315 314 316 318 317 312 307 310 314 315 314 314 313 309 302 296 289 281 280 277 268 266 265 263 268 268 263 264 266 267 266 265 264 257 249 245 244 244 244 244 240 232 225 221 219 219 221 224 228 231 232 231 230 228 227 228 230 231 230 229 226 224 225 226 227 229 230
306 302 304 308 311 313 315 315 316 317 318 319 320 319 319 321 319 315 315 314 314 314 314 314 310 307 310 312 311 312 310 308 305 295 286 278 272 273 271 266 266 265 263 264 261 256 257 262 266 262 256 256 254 249 242 239 240 241 242 238 230 226 223 219 219 220 221 226 228 229 230 229 228 227 227 228 229 230 230 228 225 225 227 227 227 226
309 305 306 310 312 314 314 315 316 317 318 318 318 317 318 319 317 315 315 314 313 310 309 311 309 306 308 309 308 307 303 301 296 287 282 276 269 269 269 264 263 263 263 263 259 254 255 259 262 258 249 245 247 248 243 237 235 237 240 237 229 225 223 220 220 220 221 224 226 226 227 228 227 226 226 227 228 230 231 230 227 225 227 227 227 226
309 306 306 310 312 313 314 315 316 317 318 318 317 317 317 317 317 316 314 313 311 306 305 309 307 305 306 305 304 301 295 292 284 280 280 276 271 270 269 262 259 259 260 261 259 256 256 256 255 251 243 237 238 241 240 236 232 232 236 237 230 224 221 219 220 220 220 222 224 224 225 225 226 226 225 226 228 231 232 231 229 227 226 228 229 228
310 309 309 311 312 313 313 314 315 316 317 317 316 316 317 316 316 316 312 311 309 303 301 305 303 302 302 301 301 297 290 284 278 277 278 276 273 272 269 262 258 257 257 258 257 254 256 254 249 243 237 234 235 235 233 233 230 229 233 236 232 225 219 217 219 220 220 221 222 223 223 224 224 225 226 227 228 230 232 231 229 228 227 228 230 230
311 311 311 313 314 313 314 315 315 316 315 314 314 315 316 316 316 315 311 308 305 299 299 301 300 298 296 297 299 296 289 280 277 280 281 277 273 271 268 262 258 258 257 258 257 253 253 251 244 237 232 232 236 236 232 230 230 228 231 235 232 226 220 216 217 219 219 220 221 222 223 224 224 225 226 227 229 231 232 231 229 228 227 228 230 230
311 311 311 314 314 313 314 316 316 315 314 313 313 314 315 316 316 313 308 305 302 299 299 299 297 292 290 296 297 289 281 275 276 280 280 275 269 265 263 259 256 258 258 256 255 253 251 248 242 234 231 232 235 236 231 230 234 232 231 232 228 223 220 216 215 216 216 218 220 221 223 224 225 226 227 227 229 231 232 231 229 228 227 228 230 229
311 310 311 314 314 313 315 317 317 316 316 315 315 316 317 316 315 310 305 303 300 296 294 292 289 287 291 299 295 283 279 279 278 277 275 270 265 262 263 263 262 263 261 256 251 251 250 247 242 236 233 231 231 235 234 233 243 239 231 228 225 220 218 217 215 215 216 217 219 221 223 224 225 227 228 229 230 231 231 230 229 228 228 230 230 228
311 311 311 313 313 313 315 317 316 316 315 315 315 317 318 316 314 308 301 299 296 291 289 287 286 287 295 301 294 286 287 286 282 279 275 271 266 265 266 266 264 259 257 254 248 245 245 244 240 236 235 231 225 230 237 239 247 241 226 222 221 218 217 218 216 215 217 218 220 222 225 226 226 227 229 229 230 230 230 229 228 229 230 231 230 226
311 312 312 312 313 314 316 318 317 316 315 314 316 318 317 314 311 304 298 297 295 292 290 287 285 289 296 298 293 292 293 290 287 285 280 276 272 268 266 263 259 250 246 247 242 235 235 238 237 234 234 230 223 225 237 242 248 237 219 214 216 218 218 219 218 217 217 219 220 223 225 226 227 228 229 230 230 230 230 229 229 230 231 230 228 224
312 313 313 312 313 314 315 316 316 314 313 314 315 316 314 311 307 299 295 294 292 291 292 288 287 290 294 295 294 295 294 293 293 292 287 283 278 272 265 260 257 252 249 246 237 228 228 233 235 233 233 230 224 225 234 239 244 234 214 207 211 219 222 223 221 220 219 219 220 222 223 224 225 227 229 230 230 231 230 229 229 230 230 229 226 222
313 313 313 314 315 316 316 316 315 314 313 314 314 314 311 308 303 297 294 292 288 289 291 288 288 290 293 295 295 296 296 297 298 296 289 283 280 276 269 261 256 254 253 246 233 223 225 230 232 231 230 229 226 228 230 231 237 231 212 203 207 216 223 226 225 222 220 221 222 223 222 222 223 225 227 229 230 230 229 229 229 230 228 226 224 220
313 314 315 316 316 317 317 318 317 315 314 314 314 313 310 306 301 297 296 292 290 293 293 289 290 293 296 298 298 298 300 300 297 293 286 280 279 278 276 270 261 255 253 246 233 224 222 225 229 228 226 225 226 227 227 227 230 227 212 203 203 210 218 223 225 224 222 223 225 224 222 222 223 223 225 228 229 228 228 228 228 229 226 224 222 219
313 314 316 316 314 315 317 317 316 314 313 314 313 311 310 306 302 300 297 294 294 298 296 292 295 299 302 302 299 300 301 297 293 291 286 280 276 274 273 273 267 259 255 247 237 230 225 225 227 227 224 224 226 226 223 223 225 225 217 209 204 204 210 217 223 226 226 226 226 223 222 223 223 223 224 226 227 226 226 227 227 227 224 222 222 221
312 314 317 314 311 314 315 315 314 312 312 312 311 311 309 305 303 301 297 294 297 299 297 297 300 300 298 297 298 301 299 292 288 288 286 278 273 273 275 275 276 270 262 251 241 236 234 229 227 228 227 227 228 227 222 219 222 224 220 214 209 205 206 209 216 223 227 228 225 222 222 223 223 223 223 223 224 225 225 226 225 224 223 222 222 223
312 314 316 313 311 313 315 314 313 312 312 311 310 309 307 304 304 300 295 294 296 297 297 299 298 294 291 293 298 299 293 286 285 285 283 278 274 277 279 282 286 282 270 258 248 245 244 236 228 227 229 231 228 224 221 219 221 223 217 213 213 211 210 210 213 218 224 226 226 223 223 224 223 224 223 223 224 224 224 225 224 224 225 225 225 224
313 314 315 313 311 313 316 315 312 310 309 309 309 309 307 305 302 298 296 296 294 293 294 294 292 289 288 291 294 290 282 279 282 282 278 274 272 273 272 276 284 283 273 262 254 252 249 240 232 229 231 235 229 219 218 220 221 220 214 209 211 213 214 215 215 219 222 223 224 224 223 223 223 223 224 224 224 223 223 224 225 225 227 228 229 229
313 313 314 313 311 313 315 313 310 309 308 309 311 310 307 305 302 300 299 297 292 290 290 289 289 288 288 288 286 281 277 277 278 277 272 267 267 267 265 268 274 274 272 265 255 254 250 244 240 234 234 238 232 221 220 223 223 220 216 214 214 213 215 215 215 220 224 223 222 222 221 220 221 221 222 223 221 220 222 224 225 226 227 228 231 232
314 313 313 312 309 312 314 312 310 310 309 310 311 310 309 309 306 303 299 295 293 292 292 292 294 296 297 292 282 276 276 278 277 273 266 261 263 265 264 267 268 262 264 266 255 249 249 247 245 241 239 240 237 231 228 228 226 221 216 217 218 218 218 213 211 217 224 225 223 220 218 217 217 219 219 219 219 219 222 225 225 226 227 228 230 232
315 313 313 311 309 312 315 314 312 311 311 313 315 318 318 314 305 298 292 291 292 294 296 298 301 305 306 300 292 284 279 278 277 275 269 261 259 263 264 265 262 253 253 261 252 245 248 248 247 247 245 242 239 237 236 236 233 225 219 218 219 220 221 215 210 214 219 225 225 220 217 216 215 216 217 217 218 219 221 224 226 227 228 230 231 233
314 313 313 312 312 313 316 317 314 313 314 316 321 325 319 304 293 290 286 287 295 303 306 306 307 307 305 302 300 296 288 281 277 276 274 269 263 263 262 261 257 250 250 255 247 243 248 248 248 249 247 244 241 237 237 240 236 226 220 220 220 221 222 222 221 218 215 219 223 220 217 216 214 214 215 215 217 219 221 223 225 226 228 230 231 232
314 313 313 313 314 315 318 318 314 314 315 317 324 327 308 283 285 286 281 285 299 313 317 312 306 303 302 303 306 303 298 291 282 275 274 275 273 268 263 261 258 254 255 255 239 233 239 241 244 248 247 245 241 233 234 240 234 223 218 219 220 220 221 226 230 226 216 215 219 219 216 215 214 213 213 214 217 219 220 223 225 226 227 228 229 231
314 314 313 314 316 317 318 317 315 314 313 317 327 325 291 276 283 282 281 286 296 312 317 313 304 299 302 308 312 312 306 298 289 279 277 279 279 274 267 263 261 260 261 255 237 227 229 229 234 241 243 242 236 230 234 240 231 220 216 216 218 220 221 226 232 230 221 215 218 219 215 213 214 214 213 215 217 220 222 223 224 225 225 226 227 228
314 313 314 316 317 318 317 315 314 312 312 320 330 321 291 282 285 289 292 292 297 313 314 310 303 300 304 308 313 315 308 300 295 287 281 281 279 274 270 264 261 262 261 251 239 234 233 226 224 230 236 238 233 231 238 238 225 218 217 218 221 223 224 226 230 231 224 218 220 222 216 213 215 215 216 217 219 222 224 226 227 226 226 227 227 227
314 313 315 316 317 319 318 315 315 314 315 323 328 320 301 283 279 288 293 293 301 311 308 306 304 303 305 309 312 313 306 300 299 294 284 281 276 271 268 264 261 261 257 246 239 239 241 233 219 220 229 234 230 232 240 234 220 216 219 220 222 224 223 223 227 230 225 221 223 225 219 216 216 217 218 220 222 224 227 228 230 229 229 230 230 228
315 315 316 316 317 321 319 316 316 315 317 325 328 324 313 289 277 283 286 287 296 302 299 301 303 303 307 310 311 311 306 301 301 299 290 285 279 271 265 260 257 258 253 246 242 242 242 234 218 215 223 227 227 232 240 233 218 214 219 221 222 223 222 222 226 228 224 220 222 223 220 218 219 220 221 221 223 226 228 230 232 232 231 232 232 231
319 319 317 317 319 320 317 315 313 312 317 327 329 326 319 300 289 293 293 292 296 298 298 300 302 304 309 310 308 308 306 302 301 302 298 289 283 276 267 259 254 253 251 248 247 245 240 227 214 214 218 222 226 229 234 230 220 218 222 224 224 223 221 222 226 225 219 216 217 218 217 217 220 224 226 227 227 227 228 229 231 233 232 232 233 232
324 322 321 324 323 318 316 315 311 310 318 327 326 324 320 308 298 299 301 301 303 303 303 305 306 307 308 308 306 305 301 298 299 302 301 294 286 279 270 262 254 249 249 249 247 245 238 222 212 213 214 220 225 226 227 228 222 220 223 224 223 222 221 221 224 220 216 215 216 215 213 213 217 221 225 229 231 231 231 232 233 233 233 232 232 233
327 324 326 328 323 317 318 317 313 314 323 328 323 320 320 315 310 307 306 307 308 309 310 311 310 309 307 306 305 302 299 297 298 300 301 298 292 284 276 266 254 246 248 250 245 241 236 222 212 213 214 219 225 226 227 228 224 222 223 222 222 223 221 221 223 219 215 214 213 212 211 210 211 214 218 224 229 231 234 236 238 238 235 233 232 233
328 327 328 328 324 320 320 319 317 319 325 327 321 316 313 313 313 312 311 312 313 313 313 312 310 308 307 306 304 300 298 298 299 300 301 300 298 293 285 273 257 245 245 248 242 238 236 226 213 212 216 220 226 230 230 230 229 226 224 222 225 227 224 222 223 222 219 216 213 211 210 208 207 209 214 221 227 231 234 239 243 245 242 237 234 234
331 331 329 327 326 323 319 318 318 320 322 323 321 318 313 310 312 314 314 315 315 314 313 311 309 308 308 306 304 301 301 302 304 305 304 303 300 295 291 281 264 249 242 241 239 236 235 228 214 210 213 217 223 228 231 234 236 233 227 226 228 230 227 225 225 224 223 220 217 214 212 209 208 209 213 220 226 230 235 240 244 249 249 243 238 237
333 333 326 322 323 321 317 318 321 321 321 321 320 319 318 315 314 316 317 317 317 316 315 313 310 308 306 304 303 302 303 305 307 308 308 306 299 293 290 284 268 252 239 235 235 233 231 226 215 210 211 213 216 219 223 231 238 237 231 228 228 228 229 229 228 227 225 222 220 219 217 214 213 213 214 219 225 230 236 242 244 247 249 247 244 241
333 330 323 320 321 319 317 321 323 321 319 319 318 319 319 317 316 317 317 317 317 315 314 312 309 307 305 304 303 303 304 305 305 304 304 303 300 294 290 282 264 249 237 232 232 230 226 221 215 212 213 214 213 212 216 225 234 238 235 231 228 229 229 227 226 227 226 221 220 221 220 218 218 219 218 217 221 229 238 243 246 246 247 249 251 248
331 326 322 322 322 320 319 323 325 321 318 318 317 317 316 315 316 316 316 316 316 316 314 312 310 309 308 307 307 305 304 304 303 300 298 298 299 295 289 278 258 241 233 231 230 227 221 217 215 214 214 214 211 210 214 221 230 236 237 233 230 231 231 225 222 224 225 223 224 225 223 223 225 225 221 217 218 224 232 239 243 244 245 249 254 251
329 323 322 321 320 319 320 325 326 321 317 318 319 320 318 316 315 315 315 317 319 319 317 315 315 315 314 314 312 308 306 306 305 302 298 296 296 293 288 278 254 236 230 230 230 226 221 216 213 212 211 210 207 208 212 216 223 231 236 234 231 232 232 228 225 225 225 225 226 227 228 229 229 226 222 221 221 223 228 234 239 242 245 251 255 251
325 321 321 321 320 320 322 326 326 321 315 314 317 320 322 321 320 319 320 321 322 321 318 317 318 320 320 318 314 310 309 310 309 306 302 297 293 289 286 278 254 233 227 228 228 228 224 217 211 208 208 208 206 205 205 208 215 226 233 234 231 232 231 229 228 229 229 228 227 227 229 230 227 225 226 227 228 227 228 232 238 243 248 253 256 251
321 319 321 322 321 322 325 328 327 323 320 319 318 319 322 324 324 324 325 326 325 323 321 319 318 318 320 318 314 311 313 314 313 310 306 299 291 284 282 277 255 232 225 225 226 227 226 219 211 208 208 209 208 204 201 203 213 224 231 232 231 232 230 227 227 230 232 232 230 229 230 229 227 227 230 234 235 232 230 231 236 243 248 250 249 245
319 319 320 321 321 322 325 328 326 323 322 321 319 320 323 326 327 328 330 330 329 326 324 321 320 320 319 316 315 315 316 317 317 313 309 302 289 278 278 276 252 228 222 222 223 226 227 222 215 209 207 207 208 205 201 204 213 222 226 228 230 233 231 229 230 232 235 237 235 232 231 230 230 231 235 237 237 234 230 232 236 241 242 241 238 237
Height
5802 5801 5797 5790 5786 5783 5778 5775 5773 5772 5769 5762 5758 5756 5756 5754 5752 5753 5752 5748 5743 5739 5744 5744 5738 5741 5743 5744 5748 5746 5738 5733 5731 5728 5725 5721 5717 5714 5712 5710 5708 5705 5703 5699 5694 5691 5687 5685 5683 5681 5679 5679 5678 5679 5679 5679 5680 5682 5682 5683 5685 5686 5687 5689 5690 5690 5690 5691 5691 5691 5691 5691 5691 5692 5693 5693 5693 5693 5693 5694 5694 5694 5694 5695 5695 5696
5797 5795 5791 5784 5781 5779 5775 5771 5768 5767 5763 5757 5751 5748 5749 5747 5742 5744 5745 5742 5738 5731 5734 5736 5731 5732 5737 5738 5741 5741 5733 5727 5725 5723 5720 5716 5711 5708 5706 5704 5702 5700 5698 5694 5690 5686 5683 5680 5677 5675 5674 5673 5673 5672 5672 5674 5674 5675 5676 5677 5679 5680 5682 5684 5686 5686 5686 5687 5688 5688 5688 5688 5688 5689 5690 5691 5691 5691 5692 5692 5692 5693 5693 5693 5694 5694
5792 5790 5784 5779 5776 5773 5770 5766 5762 5761 5758 5752 5746 5742 5741 5738 5733 5735 5738 5736 5731 5725 5725 5726 5720 5720 5729 5732 5734 5735 5729 5721 5719 5718 5714 5709 5705 5702 5700 5698 5696 5695 5692 5689 5685 5681 5678 5675 5672 5670 5669 5668 5667 5666 5666 5667 5667 5668 5669 5671 5673 5674 5677 5679 5680 5682 5682 5683 5684 5684 5685 5685 5685 5686 5687 5688 5688 5689 5690 5690 5691 5691 5691 5691 5692 5693
5787 5783 5778 5775 5772 5768 5766 5762 5756 5754 5754 5749 5741 5734 5732 5731 5724 5723 5727 5726 5725 5721 5717 5712 5704 5708 5720 5724 5728 5730 5724 5716 5713 5713 5709 5703 5698 5696 5694 5691 5688 5688 5686 5683 5680 5675 5672 5670 5667 5666 5665 5663 5662 5661 5661 5661 5661 5661 5664 5666 5667 5668 5670 5673 5675 5677 5677 5678 5679 5680 5681 5682 5682 5683 5683 5684 5685 5687 5688 5688 5689 5689 5689 5690 5690 5691
5782 5777 5772 5771 5767 5763 5761 5758 5752 5747 5747 5746 5738 5729 5724 5724 5720 5715 5714 5711 5712 5715 5717 5704 5685 5693 5711 5714 5717 5723 5718 5712 5709 5706 5702 5696 5691 5689 5687 5685 5682 5680 5678 5677 5674 5669 5666 5664 5661 5660 5659 5657 5656 5656 5655 5655 5655 5655 5657 5660 5661 5662 5664 5666 5669 5671 5672 5673 5674 5676 5677 5678 5679 5680 5680 5682 5683 5685 5686 5686 5687 5687 5687 5688 5688 5689
5776 5771 5767 5766 5764 5760 5755 5753 5747 5739 5738 5739 5734 5726 5719 5717 5714 5710 5706 5701 5697 5701 5712 5703 5675 5674 5696 5704 5707 5710 5707 5707 5705 5699 5694 5689 5685 5682 5680 5678 5677 5674 5671 5669 5668 5663 5659 5658 5655 5653 5652 5651 5651 5650 5649 5648 5649 5649 5651 5653 5654 5656 5658 5660 5662 5665 5666 5668 5669 5671 5672 5674 5675 5677 5677 5679 5680 5680 5682 5683 5683 5684 5685 5685 5686 5687
5768 5764 5761 5760 5758 5755 5750 5746 5741 5732 5728 5727 5725 5719 5714 5711 5707 5703 5699 5694 5688 5686 5697 5700 5675 5662 5676 5689 5697 5698 5694 5696 5696 5692 5687 5681 5678 5676 5673 5671 5670 5668 5664 5662 5661 5657 5652 5650 5649 5647 5646 5645 5644 5643 5642 5641 5642 5643 5644 5645 5647 5650 5653 5654 5656 5658 5660 5662 5664 5665 5667 5669 5670 5672 5674 5674 5675 5675 5677 5678 5679 5680 5682 5683 5683 5684
5759 5757 5756 5753 5751 5748 5743 5738 5733 5726 5720 5716 5714 5710 5706 5703 5699 5695 5691 5687 5682 5676 5682 5692 5678 5657 5659 5674 5685 5686 5682 5682 5684 5681 5678 5674 5671 5669 5667 5665 5663 5661 5658 5655 5653 5650 5646 5643 5641 5640 5639 5638 5638 5636 5634 5634 5636 5636 5637 5638 5641 5644 5646 5649 5650 5652 5655 5657 5658 5660 5661 5663 5665 5667 5669 5669 5670 5671 5672 5674 5675 5677 5678 5679 5680 5681
5754 5749 5749 5746 5743 5740 5737 5732 5726 5719 5713 5708 5705 5700 5697 5694 5690 5686 5682 5679 5676 5668 5669 5683 5677 5652 5645 5660 5673 5673 5670 5669 5671 5669 5666 5666 5663 5661 5660 5658 5656 5654 5650 5648 5646 5643 5640 5637 5635 5634 5633 5631 5630 5629 5627 5628 5630 5629 5629 5631 5633 5636 5640 5643 5645 5646 5649 5651 5653 5654 5655 5658 5660 5662 5663 5664 5665 5666 5668 5670 5671 5673 5674 5675 5676 5677
5751 5745 5741 5738 5735 5731 5728 5726 5720 5712 5704 5699 5695 5691 5689 5686 5681 5677 5674 5670 5666 5660 5660 5671 5670 5647 5632 5645 5660 5661 5660 5659 5659 5657 5655 5656 5655 5652 5651 5648 5647 5645 5642 5641 5638 5635 5633 5630 5628 5626 5626 5626 5624 5623 5621 5620 5622 5621 5622 5623 5625 5629 5633 5636 5639 5640 5643 5645 5647 5648 5650 5652 5654 5656 5657 5659 5661 5662 5664 5665 5667 5668 5670 5671 5672 5674
5748 5743 5737 5731 5726 5721 5718 5717 5714 5706 5698 5692 5686 5681 5678 5676 5674 5668 5666 5663 5652 5648 5655 5660 5658 5641 5621 5629 5647 5649 5648 5649 5647 5645 5643 5644 5644 5642 5640 5637 5635 5633 5632 5631 5629 5627 5624 5621 5620 5618 5618 5618 5617 5615 5614 5614 5614 5614 5615 5616 5617 5621 5626 5629 5632 5634 5637 5639 5641 5643 5645 5646 5647 5649 5651 5653 5656 5658 5659 5660 5662 5664 5665 5667 5668 5669
5745 5739 5732 5726 5719 5713 5709 5708 5707 5701 5693 5687 5681 5673 5665 5661 5661 5654 5651 5650 5638 5633 5642 5644 5641 5631 5613 5616 5633 5634 5634 5639 5636 5633 5632 5630 5629 5629 5629 5626 5623 5621 5619 5619 5618 5616 5613 5610 5609 5609 5608 5609 5609 5607 5607 5607 5607 5607 5608 5609 5609 5612 5617 5621 5625 5628 5631 5633 5635 5637 5639 5640 5641 5643 5645 5648 5650 5653 5654 5655 5657 5658 5660 5662 5663 5664
5741 5737 5727 5720 5714 5708 5702 5698 5698 5696 5691 5684 5677 5668 5655 5645 5642 5637 5634 5633 5624 5621 5628 5630 5624 5615 5606 5608 5618 5620 5621 5626 5625 5622 5620 5617 5614 5612 5612 5610 5607 5606 5605 5604 5602 5599 5597 5595 5595 5598 5598 5599 5599 5599 5599 5599 5599 5600 5600 5602 5603 5606 5610 5614 5618 5622 5624 5626 5629 5631 5633 5634 5635 5637 5639 5642 5645 5647 5649 5650 5651 5653 5655 5657 5658 5660
5730 5733 5727 5716 5708 5703 5697 5689 5683 5681 5681 5677 5670 5661 5651 5641 5629 5621 5622 5619 5613 5612 5618 5623 5614 5599 5598 5604 5607 5607 5608 5610 5611 5611 5607 5603 5598 5593 5592 5592 5590 5590 5590 5588 5586 5585 5585 5585 5584 5586 5588 5588 5590 5591 5590 5591 5592 5592 5592 5595 5599 5602 5604 5607 5611 5615 5617 5620 5623 5624 5626 5628 5629 5631 5634 5636 5639 5641 5643 5644 5646 5647 5649 5651 5653 5655
5715 5719 5721 5713 5703 5698 5694 5689 5679 5671 5668 5666 5664 5656 5649 5644 5629 5614 5612 5607 5600 5599 5604 5611 5605 5590 5589 5595 5596 5596 5595 5596 5597 5595 5591 5586 5582 5578 5578 5579 5578 5577 5578 5574 5574 5577 5578 5577 5576 5576 5577 5578 5581 5582 5581 5582 5583 5584 5585 5588 5593 5596 5598 5601 5604 5608 5611 5614 5616 5618 5620 5622 5623 5625 5628 5630 5633 5635 5637 5639 5641 5642 5644 5646 5648 5650
5705 5709 5714 5708 5699 5692 5686 5684 5679 5668 5661 5657 5655 5650 5645 5641 5629 5612 5606 5603 5594 5585 5587 5594 5590 5582 5581 5583 5587 5587 5584 5586 5584 5579 5577 5575 5571 5570 5569 5570 5569 5567 5566 5564 5565 5569 5570 5569 5567 5566 5566 5567 5570 5573 5573 5573 5575 5576 5577 5580 5584 5588 5591 5595 5598 5602 5605 5607 5610 5612 5614 5615 5617 5619 5622 5624 5627 5630 5632 5634 5636 5637 5639 5640 5642 5644
5690 5698 5709 5704 5694 5690 5681 5676 5675 5665 5653 5648 5644 5641 5638 5634 5625 5607 5593 5594 5590 5575 5572 5579 5573 5570 5572 5571 5575 5578 5573 5572 5569 5565 5567 5565 5562 5562 5561 5560 5559 5558 5556 5555 5557 5559 5559 5559 5557 5556 5556 5555 5558 5561 5563 5564 5566 5568 5570 5571 5575 5579 5583 5587 5591 5595 5598 5600 5603 5606 5608 5609 5611 5614 5616 5619 5622 5625 5627 5628 5630 5631 5633 5634 5636 5638
5673 5676 5696 5698 5684 5681 5679 5670 5670 5668 5653 5642 5635 5630 5625 5620 5619 5610 5587 5579 5578 5566 5562 5567 5562 5558 5560 5558 5560 5563 5561 5557 5554 5554 5556 5555 5554 5552 5551 5549 5548 5548 5547 5547 5548 5548 5548 5549 5548 5547 5546 5546 5546 5548 5551 5555 5557 5560 5562 5563 5566 5571 5574 5579 5584 5588 5591 5594 5597 5600 5602 5603 5606 5608 5610 5613 5616 5618 5620 5622 5624 5626 5628 5629 5631 5632
5663 5656 5673 5691 5678 5667 5671 5663 5656 5660 5654 5642 5633 5628 5619 5605 5600 5601 5587 5572 5565 5555 5549 5552 5552 5549 5549 5549 5548 5548 5547 5544 5542 5544 5545 5544 5544 5541 5537 5536 5536 5537 5538 5538 5539 5538 5538 5540 5539 5538 5537 5537 5537 5537 5539 5544 5549 5551 5554 5556 5559 5563 5568 5572 5576 5580 5584 5587 5590 5592 5595 5597 5600 5602 5604 5606 5609 5612 5614 5617 5619 5621 5622 5624 5625 5627
5659 5646 5648 5674 5675 5658 5661 5659 5644 5640 5640 5635 5629 5627 5622 5608 5593 5585 5579 5570 5558 5546 5537 5534 5534 5536 5539 5542 5539 5535 5535 5534 5532 5534 5535 5533 5531 5527 5524 5523 5524 5525 5527 5529 5529 5528 5529 5531 5530 5529 5529 5530 5532 5531 5529 5532 5539 5544 5545 5547 5550 5555 5560 5564 5567 5571 5575 5579 5583 5586 5588 5591 5593 5596 5598 5600 5603 5606 5609 5611 5613 5615 5616 5618 5619 5621
5652 5645 5633 5649 5661 5653 5654 5654 5637 5623 5619 5614 5612 5611 5607 5599 5588 5574 5565 5564 5557 5541 5530 5522 5512 5515 5530 5536 5530 5524 5526 5526 5524 5523 5523 5522 5519 5514 5510 5509 5512 5513 5513 5516 5517 5516 5518 5520 5522 5522 5521 5523 5527 5527 5524 5522 5526 5532 5535 5539 5543 5547 5553 5557 5560 5564 5568 5572 5576 5579 5582 5584 5587 5589 5592 5594 5597 5599 5602 5604 5607 5609 5611 5612 5613 5616
5642 5639 5629 5630 5641 5643 5647 5649 5635 5619 5611 5604 5600 5598 5592 5584 5574 5559 5546 5549 5551 5537 5526 5515 5495 5493 5513 5523 5517 5515 5516 5514 5512 5509 5506 5506 5505 5501 5496 5496 5499 5498 5497 5499 5502 5503 5506 5509 5512 5513 5513 5514 5516 5520 5520 5517 5516 5519 5524 5531 5535 5540 5545 5550 5554 5558 5562 5566 5569 5572 5575 5577 5580 5583 5585 5588 5590 5593 5595 5598 5601 5603 5605 5607 5608 5611
5634 5628 5620 5615 5621 5626 5631 5634 5624 5610 5602 5598 5595 5592 5584 5575 5567 5552 5534 5530 5531 5522 5516 5507 5486 5480 5499 5509 5504 5503 5503 5499 5497 5494 5489 5488 5486 5484 5482 5480 5480 5479 5479 5483 5486 5489 5493 5498 5501 5502 5502 5503 5505 5509 5513 5513 5511 5509 5512 5519 5526 5532 5538 5543 5547 5550 5553 5557 5561 5564 5567 5570 5573 5576 5579 5582 5584 5587 5590 5592 5595 5597 5599 5601 5603 5605
5630 5623 5611 5602 5605 5612 5620 5624 5617 5603 5593 5589 5590 5590 5581 5569 5561 5548 5533 5524 5514 5506 5503 5493 5473 5471 5489 5498 5494 5492 5491 5487 5485 5482 5477 5472 5467 5466 5467 5465 5464 5465 5467 5470 5474 5477 5480 5486 5489 5489 5491 5494 5496 5498 5502 5505 5506 5502 5501 5506 5515 5524 5532 5536 5540 5543 5546 5549 5552 5556 5558 5562 5565 5568 5572 5576 5578 5581 5584 5587 5589 5592 5594 5595 5597 5600
5621 5618 5606 5590 5584 5588 5595 5602 5599 5591 5585 5581 5580 5580 5572 5560 5549 5537 5529 5522 5506 5499 5501 5487 5464 5464 5480 5486 5483 5483 5481 5478 5475 5472 5467 5460 5455 5455 5456 5455 5454 5455 5457 5461 5465 5467 5468 5472 5475 5477 5480 5483 5486 5489 5492 5496 5498 5496 5493 5495 5503 5513 5522 5529 5532 5535 5538 5541 5544 5547 5551 5554 5558 5561 5565 5569 5573 5576 5579 5581 5584 5586 5588 5590 5592 5595
5609 5609 5603 5586 5574 5569 5567 5568 5567 5561 5558 5558 5557 5554 5549 5541 5533 5523 5516 5508 5494 5490 5494 5483 5462 5460 5471 5475 5473 5474 5473 5468 5463 5459 5456 5453 5450 5449 5449 5448 5447 5447 5448 5452 5456 5458 5460 5463 5466 5467 5468 5471 5475 5479 5482 5486 5490 5490 5487 5486 5491 5500 5510 5519 5524 5528 5530 5533 5537 5541 5544 5547 5551 5555 5559 5563 5567 5570 5573 5576 5578 5580 5583 5585 5587 5590
5597 5601 5601 5587 5574 5568 5560 5555 5554 5547 5540 5538 5535 5533 5530 5524 5519 5513 5503 5494 5487 5478 5475 5474 5465 5456 5459 5464 5463 5464 5464 5457 5451 5448 5447 5445 5443 5442 5442 5442 5442 5441 5441 5443 5447 5449 5451 5455 5459 5461 5461 5462 5465 5468 5471 5475 5480 5484 5483 5482 5483 5488 5496 5506 5514 5519 5522 5526 5530 5534 5537 5541 5544 5548 5553 5556 5560 5563 5566 5570 5573 5575 5577 5580 5582 5584
5585 5589 5595 5583 5571 5570 5564 5555 5550 5544 5536 5530 5523 5520 5517 5512 5508 5505 5494 5485 5483 5471 5458 5463 5466 5454 5449 5453 5454 5454 5452 5446 5442 5439 5437 5435 5435 5435 5436 5436 5436 5436 5434 5435 5438 5440 5442 5446 5450 5453 5454 5456 5459 5462 5465 5468 5472 5476 5478 5479 5480 5481 5485 5493 5502 5509 5514 5517 5521 5526 5530 5534 5537 5541 5545 5549 5552 5556 5559 5563 5566 5569 5571 5573 5576 5578
5576 5576 5581 5570 5560 5564 5563 5553 5544 5537 5530 5524 5519 5513 5508 5503 5500 5493 5483 5478 5476 5465 5453 5454 5455 5446 5441 5445 5447 5445 5440 5435 5433 5431 5428 5428 5428 5427 5427 5427 5428 5428 5427 5427 5429 5431 5434 5437 5441 5443 5445 5448 5453 5459 5462 5464 5468 5471 5473 5474 5476 5477 5479 5483 5491 5499 5504 5509 5514 5519 5523 5527 5530 5534 5537 5541 5545 5549 5552 5556 5559 5562 5565 5567 5570 5572
5571 5565 5568 5557 5546 5551 5553 5544 5534 5528 5521 5516 5513 5508 5500 5494 5490 5483 5475 5472 5467 5459 5451 5447 5441 5437 5437 5439 5437 5434 5430 5427 5425 5422 5421 5421 5419 5417 5416 5414 5415 5417 5419 5420 5421 5424 5426 5429 5432 5436 5439 5441 5445 5451 5455 5459 5463 5466 5468 5469 5470 5472 5474 5476 5481 5488 5495 5501 5507 5512 5516 5519 5522 5526 5530 5534 5538 5542 5546 5549 5552 5555 5558 5561 5564 5566
5565 5555 5556 5547 5534 5539 5545 5536 5526 5520 5512 5505 5503 5500 5493 5485 5479 5474 5467 5461 5455 5448 5443 5438 5432 5430 5432 5431 5427 5424 5421 5419 5416 5414 5414 5413 5411 5409 5406 5404 5404 5407 5411 5414 5415 5417 5419 5421 5425 5429 5433 5436 5438 5443 5448 5452 5456 5460 5463 5464 5466 5468 5469 5470 5473 5480 5486 5492 5498 5503 5507 5511 5515 5520 5524 5528 5532 5536 5539 5542 5545 5548 5551 5554 5557 5559
5558 5545 5545 5538 5525 5527 5533 5525 5515 5509 5502 5498 5496 5490 5483 5475 5467 5461 5456 5449 5443 5437 5433 5430 5426 5423 5422 5420 5418 5417 5414 5410 5407 5407 5406 5405 5404 5401 5398 5396 5398 5400 5403 5407 5410 5412 5412 5414 5417 5421 5426 5430 5432 5436 5440 5443 5446 5451 5456 5458 5461 5462 5463 5464 5467 5472 5477 5483 5489 5494 5499 5503 5508 5513 5517 5521 5525 5529 5532 5535 5538 5541 5544 5547 5550 5553
5548 5536 5532 5527 5513 5511 5516 5510 5500 5493 5487 5485 5485 5478 5470 5463 5455 5448 5444 5441 5439 5435 5429 5424 5421 5419 5415 5412 5409 5409 5408 5404 5401 5400 5399 5398 5398 5394 5390 5391 5394 5395 5396 5398 5402 5405 5406 5406 5409 5413 5418 5421 5424 5428 5431 5433 5437 5443 5447 5450 5454 5455 5456 5459 5461 5464 5468 5473 5478 5485 5490 5495 5500 5505 5510 5514 5519 5522 5525 5528 5531 5535 5538 5541 5544 5546
5537 5528 5521 5516 5504 5496 5498 5495 5485 5480 5476 5472 5474 5472 5462 5453 5445 5438 5434 5433 5434 5434 5429 5422 5418 5416 5412 5408 5405 5402 5400 5398 5395 5393 5393 5392 5390 5387 5385 5387 5389 5389 5389 5389 5392 5395 5398 5399 5402 5405 5408 5411 5415 5420 5423 5425 5428 5433 5437 5441 5445 5448 5451 5453 5455 5457 5460 5464 5468 5475 5482 5487 5492 5498 5503 5507 5511 5515 5518 5522 5525 5528 5532 5534 5537 5540
5526 5520 5512 5507 5498 5488 5485 5483 5472 5468 5470 5468 5467 5467 5457 5446 5439 5433 5428 5429 5432 5431 5427 5420 5414 5412 5409 5406 5403 5397 5393 5392 5389 5387 5387 5386 5383 5381 5380 5382 5384 5384 5383 5382 5383 5385 5389 5392 5394 5397 5400 5403 5407 5412 5415 5417 5419 5423 5428 5433 5437 5441 5446 5448 5449 5451 5454 5457 5460 5465 5473 5479 5485 5490 5495 5499 5503 5507 5511 5514 5518 5521 5524 5527 5530 5533
5517 5511 5504 5499 5494 5483 5477 5475 5467 5459 5462 5465 5463 5459 5448 5438 5434 5427 5420 5425 5432 5429 5422 5415 5409 5407 5404 5401 5398 5393 5387 5383 5382 5384 5384 5381 5378 5375 5374 5375 5377 5378 5377 5376 5376 5376 5379 5382 5385 5389 5393 5396 5400 5405 5407 5408 5411 5414 5420 5426 5429 5434 5438 5441 5444 5447 5449 5452 5455 5459 5465 5472 5478 5483 5487 5491 5495 5499 5503 5507 5510 5513 5516 5520 5523 5525
5514 5504 5497 5492 5489 5482 5471 5467 5462 5454 5452 5458 5458 5453 5443 5432 5428 5421 5410 5415 5428 5427 5415 5408 5404 5400 5397 5393 5390 5387 5381 5374 5374 5380 5381 5377 5372 5369 5367 5367 5368 5369 5369 5369 5369 5368 5369 5371 5375 5381 5386 5390 5393 5398 5401 5401 5404 5408 5414 5419 5423 5427 5430 5434 5438 5442 5446 5449 5452 5456 5461 5465 5470 5475 5479 5483 5488 5492 5497 5500 5503 5506 5509 5512 5514 5517
5514 5503 5495 5487 5482 5480 5469 5457 5452 5445 5443 5448 5449 5447 5440 5430 5424 5418 5404 5405 5421 5422 5409 5402 5398 5393 5390 5386 5382 5380 5374 5365 5365 5372 5373 5369 5365 5363 5360 5360 5360 5360 5360 5361 5362 5362 5362 5363 5365 5371 5378 5382 5386 5391 5394 5395 5397 5403 5408 5413 5416 5418 5422 5426 5432 5437 5441 5445 5448 5452 5456 5459 5462 5467 5471 5476 5481 5486 5490 5493 5496 5500 5503 5505 5508 5510
5509 5501 5496 5487 5478 5476 5466 5453 5445 5438 5436 5441 5440 5437 5434 5426 5419 5412 5401 5402 5414 5414 5404 5398 5393 5387 5384 5379 5374 5372 5366 5357 5355 5361 5362 5358 5356 5356 5354 5353 5354 5353 5352 5353 5354 5355 5356 5356 5358 5362 5369 5374 5379 5383 5386 5387 5391 5396 5401 5404 5407 5411 5416 5422 5426 5430 5435 5439 5442 5445 5449 5452 5456 5460 5465 5470 5474 5478 5482 5486 5489 5493 5496 5499 5501 5504
5501 5494 5490 5485 5478 5471 5461 5450 5442 5436 5435 5437 5433 5430 5427 5420 5414 5406 5397 5398 5406 5405 5401 5396 5388 5383 5380 5373 5367 5364 5360 5352 5348 5350 5351 5347 5345 5347 5347 5346 5347 5347 5346 5347 5348 5349 5350 5351 5353 5357 5362 5366 5371 5375 5378 5380 5384 5389 5393 5397 5401 5406 5412 5417 5419 5422 5426 5430 5432 5435 5440 5445 5449 5454 5459 5464 5468 5471 5474 5478 5481 5485 5488 5491 5494 5496
5490 5484 5481 5477 5472 5464 5455 5444 5436 5433 5436 5434 5427 5424 5420 5412 5409 5405 5396 5393 5395 5394 5393 5390 5383 5377 5373 5366 5360 5356 5353 5350 5344 5342 5342 5338 5336 5338 5339 5340 5341 5341 5341 5343 5344 5345 5346 5348 5350 5354 5358 5361 5363 5367 5369 5372 5376 5382 5386 5391 5397 5401 5405 5407 5407 5410 5414 5418 5423 5427 5433 5438 5442 5447 5453 5458 5461 5464 5467 5470 5473 5476 5479 5483 5485 5488
5479 5473 5472 5470 5463 5454 5447 5439 5427 5425 5433 5431 5422 5420 5416 5405 5400 5399 5393 5389 5389 5385 5382 5379 5375 5370 5365 5359 5353 5347 5344 5343 5340 5337 5335 5332 5329 5330 5332 5334 5335 5337 5338 5339 5340 5342 5342 5344 5347 5351 5354 5357 5358 5360 5362 5364 5369 5375 5379 5385 5390 5393 5395 5397 5399 5402 5404 5408 5414 5420 5425 5431 5436 5441 5446 5450 5453 5457 5460 5464 5466 5469 5471 5474 5477 5480
5474 5466 5461 5460 5455 5444 5437 5434 5424 5417 5424 5425 5415 5412 5412 5404 5395 5390 5385 5383 5383 5379 5373 5369 5366 5363 5356 5350 5345 5340 5336 5334 5332 5330 5329 5326 5324 5324 5325 5326 5328 5331 5333 5334 5336 5338 5338 5339 5342 5347 5350 5353 5354 5355 5357 5359 5363 5368 5373 5379 5381 5383 5387 5391 5394 5397 5400 5404 5409 5414 5419 5424 5429 5433 5437 5442 5446 5450 5453 5456 5459 5461 5464 5466 5469 5472
5472 5464 5453 5449 5449 5440 5429 5428 5425 5417 5417 5418 5409 5402 5402 5399 5393 5385 5379 5376 5375 5373 5367 5360 5358 5356 5349 5341 5336 5331 5328 5326 5325 5323 5322 5320 5318 5317 5318 5319 5320 5322 5326 5329 5331 5334 5334 5334 5338 5342 5345 5348 5349 5350 5352 5354 5358 5363 5368 5371 5373 5375 5380 5385 5388 5393 5398 5403 5407 5410 5414 5418 5422 5425 5430 5434 5438 5442 5445 5448 5451 5454 5456 5459 5462 5464
5467 5463 5452 5445 5446 5441 5429 5423 5419 5412 5410 5410 5403 5396 5394 5391 5387 5382 5376 5371 5367 5364 5359 5353 5348 5346 5342 5335 5328 5323 5321 5320 5318 5317 5316 5314 5311 5309 5309 5311 5312 5313 5317 5321 5324 5327 5328 5329 5333 5337 5340 5343 5343 5344 5347 5349 5352 5357 5362 5364 5367 5371 5375 5379 5383 5389 5394 5398 5402 5406 5409 5413 5416 5419 5423 5426 5430 5434 5437 5441 5444 5447 5449 5452 5454 5457
5463 5458 5448 5440 5437 5433 5426 5423 5416 5406 5403 5402 5396 5392 5389 5384 5380 5377 5372 5367 5362 5357 5353 5347 5340 5336 5333 5328 5322 5316 5314 5313 5311 5310 5309 5307 5305 5303 5301 5300 5302 5304 5308 5311 5315 5318 5320 5323 5327 5331 5335 5338 5339 5339 5342 5345 5349 5352 5356 5358 5362 5366 5370 5374 5379 5384 5388 5393 5397 5400 5404 5408 5411 5414 5417 5419 5422 5426 5430 5434 5437 5440 5443 5445 5447 5450
5458 5450 5441 5435 5430 5421 5416 5417 5412 5403 5399 5396 5389 5387 5385 5379 5376 5374 5369 5363 5357 5351 5346 5341 5335 5329 5326 5321 5315 5309 5306 5306 5304 5300 5300 5301 5300 5298 5294 5291 5292 5296 5300 5304 5308 5311 5314 5318 5321 5326 5330 5333 5334 5334 5338 5342 5345 5347 5350 5353 5357 5362 5367 5371 5375 5379 5384 5389 5393 5396 5400 5404 5407 5409 5412 5413 5416 5419 5422 5426 5430 5433 5436 5438 5440 5442
5449 5443 5436 5430 5426 5418 5410 5408 5404 5397 5395 5393 5386 5382 5378 5373 5370 5370 5365 5357 5351 5344 5338 5333 5328 5322 5317 5313 5309 5302 5298 5299 5297 5291 5290 5292 5293 5291 5288 5284 5285 5290 5294 5298 5302 5306 5309 5313 5317 5321 5326 5328 5328 5329 5333 5337 5341 5343 5345 5348 5353 5358 5363 5368 5371 5375 5379 5384 5388 5392 5395 5399 5401 5404 5406 5408 5410 5412 5416 5420 5423 5427 5430 5431 5432 5434
5441 5436 5430 5422 5417 5413 5408 5403 5396 5388 5388 5390 5386 5379 5373 5366 5362 5360 5356 5351 5345 5338 5331 5327 5323 5316 5308 5303 5299 5294 5290 5291 5289 5283 5279 5281 5282 5282 5280 5277 5277 5282 5287 5291 5296 5301 5304 5308 5313 5317 5321 5322 5323 5324 5328 5333 5336 5338 5341 5344 5350 5355 5360 5364 5367 5371 5374 5378 5383 5387 5390 5393 5396 5399 5402 5404 5406 5408 5411 5414 5417 5421 5424 5425 5426 5428
5436 5430 5425 5417 5409 5406 5404 5399 5392 5383 5380 5380 5378 5373 5367 5360 5355 5352 5348 5343 5339 5332 5324 5318 5316 5313 5308 5299 5291 5285 5281 5281 5280 5275 5271 5271 5272 5271 5271 5269 5269 5272 5278 5284 5290 5296 5300 5304 5309 5313 5315 5317 5318 5320 5324 5328 5332 5335 5338 5341 5346 5350 5355 5359 5363 5366 5369 5373 5377 5382 5385 5388 5391 5394 5397 5399 5401 5402 5404 5407 5410 5414 5416 5418 5420 5422
5432 5426 5420 5413 5405 5402 5400 5396 5390 5384 5379 5376 5373 5369 5363 5355 5351 5348 5343 5337 5332 5326 5319 5311 5305 5303 5301 5298 5290 5281 5274 5271 5270 5266 5262 5263 5263 5262 5261 5260 5260 5263 5270 5278 5286 5291 5295 5300 5305 5309 5311 5313 5315 5317 5321 5325 5328 5331 5334 5338 5342 5346 5350 5354 5358 5361 5364 5366 5370 5375 5379 5383 5386 5389 5392 5394 5395 5396 5397 5400 5404 5406 5408 5410 5412 5415